Weather History for East Midlands, United Kingdom

Change the Weather History Date:

Friday, November 9, 2012

  Actual Average Record
Temperature  
Mean Temperature 48 °F -  
Max Temperature 51 °F 46 °F 60 °F (1998)
Min Temperature 46 °F 37 °F 28 °F (2001)
Degree Days  
Heating Degree Days 16    
Moisture  
Dew Point 41 °F    
Average Humidity 78    
Maximum Humidity 93    
Minimum Humidity 67    
Precipitation  
Precipitation 0.00 in - - ()
Sea Level Pressure  
Sea Level Pressure 29.70 in    
Wind  
Wind Speed 13 mph ()    
Max Wind Speed 21 mph    
Max Gust Speed 33 mph    
Visibility 6.1 miles    
Events Rain    
Averages and records for this station are not official NWS values.
T = Trace of Precipitation, MM = Missing Value Source: Averaged Metar Reports

Daily Weather History Graph

Daily Weather History Graph

Search for Another Location

Airport:

Trip Planner

Search our weather history database for the weather conditions in past years. The results will help you decide how hot, cold, wet, or windy it might be!

Date:

Astronomy

Nov. 09, 2012 Rise Set
Actual Time 7:17 AM GMT 4:19 PM GMT
Civil Twilight 6:40 AM GMT 4:57 PM GMT
Nautical Twilight 5:58 AM GMT 5:38 PM GMT
Astronomical Twilight 5:18 AM GMT 6:18 PM GMT
Moon 1:21 AM GMT (11/9) 1:59 PM GMT (11/9)
Length of Visible Light 10h 16m
Length of Day
9h 01m
Waning Crescent, 25% of the Moon is Illuminated
Nov 9
Waning Crescent
Nov 13
New
Nov 20
First Quarter
Nov 28
Full
Dec 6
Last Quarter

Hourly Weather History & Observations

Time (GMT) Temp. Windchill Dew Point Humidity Pressure Visibility Wind Dir Wind Speed Gust Speed Precip Events Conditions
12:20 AM 46.4 °F 40.1 °F 39.2 °F 76% 29.95 in 6.2 mi SSW 15.0 mph - N/A   Mostly Cloudy
12:50 AM 46.4 °F 40.4 °F 37.4 °F 71% 29.95 in 6.2 mi SW 13.8 mph - N/A   Mostly Cloudy
1:20 AM 46.4 °F 41.9 °F 37.4 °F 71% 29.92 in 6.2 mi SSW 9.2 mph - N/A   Mostly Cloudy
1:50 AM 46.4 °F 41.1 °F 37.4 °F 71% 29.92 in 6.2 mi SW 11.5 mph - N/A   Mostly Cloudy
2:20 AM 46.4 °F 41.5 °F 37.4 °F 71% 29.92 in 6.2 mi SW 10.4 mph - N/A   Mostly Cloudy
2:50 AM 46.4 °F 41.5 °F 37.4 °F 71% 29.89 in 6.2 mi SSW 10.4 mph - N/A   Mostly Cloudy
3:20 AM 46.4 °F 40.4 °F 39.2 °F 76% 29.89 in 6.2 mi SSW 13.8 mph - N/A   Mostly Cloudy
3:50 AM 46.4 °F 40.4 °F 39.2 °F 76% 29.86 in 6.2 mi SSW 13.8 mph - N/A   Mostly Cloudy
4:20 AM 46.4 °F 40.7 °F 41.0 °F 81% 29.86 in 6.2 mi SSW 12.7 mph - N/A   Mostly Cloudy
4:50 AM 46.4 °F 41.1 °F 41.0 °F 81% 29.86 in 6.2 mi SSW 11.5 mph - N/A   Mostly Cloudy
5:20 AM 46.4 °F 40.7 °F 41.0 °F 81% 29.83 in 6.2 mi SSW 12.7 mph - N/A   Mostly Cloudy
5:50 AM 46.4 °F 40.4 °F 41.0 °F 81% 29.83 in 6.2 mi SSW 13.8 mph - N/A   Mostly Cloudy
6:20 AM 48.2 °F - 41.0 °F 76% 29.83 in 6.2 mi SSW 12.7 mph - N/A   Mostly Cloudy
6:50 AM 46.4 °F 40.4 °F 41.0 °F 81% 29.83 in 6.2 mi SSW 13.8 mph - N/A   Mostly Cloudy
7:20 AM 46.4 °F 40.4 °F 41.0 °F 81% 29.80 in 6.2 mi SSW 13.8 mph - N/A   Mostly Cloudy
7:50 AM 46.4 °F 40.4 °F 41.0 °F 81% 29.80 in 6.2 mi SSW 13.8 mph - N/A   Mostly Cloudy
8:20 AM 46.4 °F 40.7 °F 41.0 °F 81% 29.80 in 6.2 mi SSW 12.7 mph - N/A   Mostly Cloudy
8:50 AM 48.2 °F - 41.0 °F 76% 29.80 in 6.2 mi SSW 13.8 mph - N/A   Mostly Cloudy
9:20 AM 48.2 °F - 41.0 °F 76% 29.80 in 6.2 mi SSW 15.0 mph - N/A   Mostly Cloudy
9:50 AM 48.2 °F - 41.0 °F 76% 29.77 in 6.2 mi South 16.1 mph - N/A   Mostly Cloudy
10:20 AM 48.2 °F - 41.0 °F 76% 29.77 in 6.2 mi SSW 16.1 mph - N/A   Mostly Cloudy
10:50 AM 48.2 °F - 41.0 °F 76% 29.77 in 6.2 mi SSW 18.4 mph - N/A   Mostly Cloudy
11:20 AM 48.2 °F - 41.0 °F 76% 29.74 in 6.2 mi SSW 17.3 mph - N/A   Mostly Cloudy
11:50 AM 48.2 °F - 41.0 °F 76% 29.74 in 6.2 mi SSW 17.3 mph - N/A   Mostly Cloudy
12:50 PM 50.0 °F - 41.0 °F 71% 29.68 in 6.2 mi SSW 18.4 mph - N/A   Mostly Cloudy
1:20 PM 50.0 °F - 41.0 °F 71% 29.68 in 6.2 mi SSW 17.3 mph - N/A   Mostly Cloudy
1:50 PM 51.8 °F - 41.0 °F 67% 29.65 in 6.2 mi SSW 18.4 mph - N/A   Mostly Cloudy
2:20 PM 50.0 °F - 41.0 °F 71% 29.62 in 6.2 mi SSW 20.7 mph - N/A   Mostly Cloudy
2:50 PM 50.0 °F - 41.0 °F 71% 29.62 in 6.2 mi SSW 20.7 mph - N/A   Mostly Cloudy
3:20 PM 51.8 °F - 41.0 °F 67% 29.62 in 6.2 mi SSW 20.7 mph 33.4 mph N/A   Mostly Cloudy
3:50 PM 50.0 °F - 41.0 °F 71% 29.62 in 6.2 mi South 17.3 mph - N/A   Mostly Cloudy
4:20 PM 50.0 °F - 41.0 °F 71% 29.59 in 6.2 mi South 17.3 mph - N/A   Overcast
4:50 PM 50.0 °F - 41.0 °F 71% 29.59 in 6.2 mi South 16.1 mph - N/A   Overcast
5:20 PM 50.0 °F - 41.0 °F 71% 29.56 in 6.2 mi SSW 18.4 mph - N/A   Mostly Cloudy
5:50 PM 50.0 °F - 42.8 °F 76% 29.56 in 6.2 mi South 18.4 mph - N/A   Mostly Cloudy
6:20 PM 48.2 °F - 42.8 °F 82% 29.56 in 6.2 mi South 19.6 mph - N/A Rain Light Rain Showers
6:50 PM 48.2 °F - 42.8 °F 82% 29.56 in 6.2 mi South 18.4 mph - N/A   Light Drizzle
7:20 PM 48.2 °F - 42.8 °F 82% 29.53 in 6.2 mi South 19.6 mph - N/A Rain Light Rain
7:50 PM 48.2 °F - 42.8 °F 82% 29.53 in 6.2 mi South 18.4 mph - N/A Rain Light Rain
8:20 PM 48.2 °F - 42.8 °F 82% 29.53 in 6.2 mi SSW 16.1 mph - N/A Rain Light Rain
8:50 PM 46.4 °F 40.1 °F 42.8 °F 87% 29.53 in 5.0 mi SSW 15.0 mph - N/A Rain Light Rain
9:20 PM 48.2 °F - 44.6 °F 87% 29.50 in 5.0 mi SSW 15.0 mph - N/A Rain Light Rain
9:50 PM 46.4 °F 40.4 °F 44.6 °F 93% 29.50 in 6.2 mi South 13.8 mph - N/A Rain Light Rain
10:20 PM 46.4 °F 40.4 °F 44.6 °F 93% 29.50 in 6.2 mi SSW 13.8 mph - N/A   Scattered Clouds
10:50 PM 46.4 °F 40.4 °F 44.6 °F 93% 29.50 in 6.2 mi SSW 13.8 mph - N/A   Scattered Clouds
11:20 PM 46.4 °F 40.4 °F 44.6 °F 93% 29.47 in - SSW 13.8 mph - N/A   Clear
11:50 PM 46.4 °F 40.4 °F 44.6 °F 93% 29.47 in 6.2 mi SSW 13.8 mph - N/A   Partly Cloudy